Погода в Шуртане

Узбекистан     38°40′54″N   66°00′15″E
темп.,
°C
ветер,
м/с
пор.,
м/с
влажн.,
%
обл.,
%
осадки,
мм/ч
давл.,
гПа
погр.,
м
3 марта, ср
ср323:00+12вюв1140100 0.0 102322
02:00+12ююз343899 0.0 102267
05:00+9ю236197 0.0 102255
08:00+9ююв127556 0.0 102340
11:00+14юз224730 0.0 1022775
14:00+16зюз33315 0.0 10201719
17:00+16з23296 0.0 10191754
20:00+12с343910 0.0 101973
4 марта, чт
чт423:00+10всв22455 0.0 101923
02:00+9вюв12550 0.0 101822
05:00+9в346315 0.0 101735
08:00+10всв356092 0.8 1018117
11:00+16в343995 1.2 1017499
14:00+20зюз683119 0.1 10161942
17:00+20зюз783013 0.1 10162779
20:00+12ссз10155432 0.4 1021620
5 марта, пт
пт523:00+9ссз356432 0.8 1025239
02:00+8ссз557999 0.8 1027297
05:00+7с347998 0.9 1028212
08:00+6с348162 0.0 1028169
11:00+10ссв226131 0.0 1026620
14:00+14с11440 0.0 1022839
17:00+16с33380 0.0 1019739
20:00+12св355059 0.0 1018102
6 марта, сб
сб623:00+12всв585256 0.0 1015165
02:00+13всв4742100 0.0 1012131
05:00+12ссв2334100 0.0 100930
08:00+10с71049100 0.1 1008203
11:00+10всв91376100 5.7 1010345
14:00+15ююз101653100 0.1 10101399
17:00+11ююз11156596 0.1 10131260
20:00+6ююз101478100 0.0 1017788
7 марта, вс
вс723:00+6юз81187100 0.9 1020645
02:00+5юз6889100 1.4 1020609
05:00+5юз4689100 2.0 1021433
08:00+5юз4688100 0.6 1021443
11:00+7юз5667100 0.7 1021841
14:00+11юз685076 0.0 10191283
17:00+11ююз574538 0.0 10171202
20:00+8всв23650 0.0 101754